Regional Weather Roundup
Issued by NWS

Home | Current Version | Previous Version | Graphics & Text | Print | Product List | Glossary On
Versions: 1 2 3 4 5 6 7 8 9 10 11 12 13 14 15 16 17 18 19 20 21 22 23 24 25 26 27 28 29 30 31 32 33 34 35 36 37 38 39 40 41 42 43 44 45 46 47 48 49 50
000
ASUS43 KFSD 280702
RWRSD

WEATHER ROUNDUP FOR SOUTH DAKOTA
NATIONAL WEATHER SERVICE SIOUX FALLS SD
200 AM CDT SAT MAY 28 2016

NOTE: "FAIR" INDICATES FEW OR NO CLOUDS BELOW 12,000 FEET WITH NO
SIGNIFICANT WEATHER AND/OR OBSTRUCTIONS TO VISIBILITY.


SDZ001>005-009-010-012>017-280800-
NORTHWEST AND NORTH CENTRAL SOUTH DAKOTA

CITY           SKY/WX    TMP DP  RH WIND       PRES   REMARKS
BUFFALO          N/A     53  45  74 E3        29.80F
FAITH            N/A     56  45  66 CALM      29.84S
MOBRIDGE       CLOUDY    58  53  84 CALM      29.80S
$$

SDZ012>016-024>037-041>051-057-063-072>074-280800-
SOUTHWEST AND SOUTH CENTRAL SOUTH DAKOTA

CITY           SKY/WX    TMP DP  RH WIND       PRES   REMARKS
RAPID CTY ARPT CLEAR     46  44  93 NW5       29.86S
PIERRE         CLOUDY    59  53  80 NW6       29.79F
CUSTER         PTCLDY    39  36  89 NW5       29.93S
ELLSWORTH AFB  CLEAR     52  46  79 CALM      29.86S
PHILIP         CLOUDY    50  49  96 W5        29.83S
PINE RIDGE     CLOUDY    47  44  90 W3        29.87F
WINNER         FAIR      56  53  90 NW7       29.79F
$$

SDZ004>011-016>023-039-040-280800-
NORTHEAST SOUTH DAKOTA

CITY           SKY/WX    TMP DP  RH WIND       PRES   REMARKS
ABERDEEN       LGT RAIN  60  58  92 CALM      29.79F
WATERTOWN      MOCLDY    57  55  93 N3        29.76F
BROOKINGS      CLOUDY    59  57  93 NE5       29.76S
SISSETON         N/A     61  58  90 E5        29.77F
$$

SDZ017-020-022-023-036>040-048>070-280800-
SOUTHEAST SOUTH DAKOTA

CITY           SKY/WX    TMP DP  RH WIND       PRES   REMARKS
SIOUX FALLS    CLOUDY    62  58  86 N9        29.73F
HURON          CLOUDY    60  58  92 N5        29.76F
MITCHELL       CLOUDY    62  59  90 N7        29.75F
YANKTON        CLOUDY    61  57  88 SW5       29.72F
$$

ABBREVIATIONS USED IN REMARKS
   TC - TEMPERATURE IN CELSIUS
  WCI - WIND CHILL INDEX
   HX - HEAT INDEX
  VSB - VISIBILITY





USA.gov is the U.S. government's official web portal to all federal, state and local government web resources and services.